Voltar ao catálogo

COSMOS 2535 DEB

AtivoSSO
NORAD 44641·DEBRIS·🇷🇺 Russia

Lançado Jul 10, 2019 de Plesetsk Cosmodrome

Loading…

Próximas Passagens (próximas 24 horas)

TLE

AtualizadoSource: Space-Track

Época: Sep 14, 2026, 10:58 UTC

1 44641U 19039M   26257.45698637  .00016173  00000-0  46689-3 0  9995
2 44641  97.5451 333.3675 0013336  16.8251 343.3432 15.35673316380813

Acompanhe COSMOS 2535 DEB em tempo real com AllMySat

Download on the App Store